Regional Weather Roundup
Issued by NWS Jackson, KY

Home | Current Version | Previous Version | Text Only | Print | Product List | Glossary Off
Versions: 1 2 3 4 5 6 7 8 9 10 11 12 13 14 15 16 17 18 19 20 21 22 23 24 25 26 27

000
ASUS43 KJKL 201910
RWRJKL

EAST KENTUCKY HOURLY WEATHER ROUNDUP
NATIONAL WEATHER SERVICE JACKSON KY
200 PM EST FRI JAN 20 2017

NOTE: "FAIR" INDICATES FEW OR NO CLOUDS BELOW 12,000 FEET WITH
NO SIGNIFICANT WEATHER AND/OR OBSTRUCTIONS TO VISIBILITY.

* THESE REPORTS ARE NOT UNDER NWS QUALITY CONTROL AND MAY NOT
  REPORT WEATHER SUCH AS PRECIPITATION AND FOG.

KYZ079-080-083-085-087-088-110-112-115-119-120-202000
...EASTERN KENTUCKY...

CITY           SKY/WX    TMP DP  RH WIND       PRES   REMARKS
JACKSON        CLOUDY    62  51  67 MISG      29.76F
LONDON         PTSUNNY   64  50  60 SW10      29.77F
SOMERSET*      PTSUNNY   63  52  67 W15G24    29.78F
MONTICELLO*    PTSUNNY   64  51  62 SW18      29.79F
WILLIAMSBURG*  MOCLDY    64  50  59 S9G23     29.77F
MIDDLESBORO*   CLOUDY    63  54  72 S8        29.79F
HARLAN APT*    CLOUDY    63  50  63 CALM      29.79S
PIKE CO APT*   CLOUDY    62  51  66 S6        29.77F
BIG SANDY APT* CLOUDY    64  53  67 SW9       29.76F
MOREHEAD APT*  CLOUDY    61  50  67 SW14G22   29.75F
ASHLAND*       PTSUNNY   64  55  72 W12       29.71F
$$

KYZ035-036-041-042-044-050-067-078-099-202000
...CENTRAL KENTUCKY...

CITY           SKY/WX    TMP DP  RH WIND       PRES   REMARKS
MT STERLING*   MOSUNNY   61  52  72 W9G18     29.75F
FLEMING/MASON* CLOUDY    61  53  76 SW13      29.74S
DANVILLE*      PTSUNNY   61  50  67 SW12G17   29.76F
LEXINGTON      PTSUNNY   61  49  64 SW18G29   29.74F
FRANKFORT      PTSUNNY   61  49  64 SW15G23   29.72F
LOUISVILLE     PTSUNNY   61  49  64 SW13      29.71F
LEBANON*       CLOUDY    61  50  67 S15       29.75F
GLASGOW*       CLOUDY    61  51  70 SW9       29.75F
BOWLING GREEN  CLOUDY    63  53  70 SW8       29.74F
$$

KYZ091>093-OHZ055-061-077-WVZ005-015-034-035-042-202000
...SOUTHERN OHIO/WEST VIRGINIA...

CITY           SKY/WX    TMP DP  RH WIND       PRES   REMARKS
COVINGTON      CLOUDY    59  51  75 SW9       29.70S
COLUMBUS       CLOUDY    60  52  74 SW14      29.68F
DAYTON         CLOUDY    55  50  83 SW18      29.69R
WILMINGTON     CLOUDY    57  52  83 SW15      29.69S
HUNTINGTON     CLOUDY    64  52  64 S9        29.73F
CHARLESTON     PTSUNNY   63  50  62 VRB5      29.74F
PINEVILLE*     PTSUNNY   66  46  48 MISG      29.82
BECKLEY        PTSUNNY   60  47  61 W13       29.78F
BLUEFIELD      PTSUNNY   56  46  69 W9        29.81F
LOGAN CO APT*    N/A     63  52  67 VRB7      29.76F
$$

VAZ002-007-008-TNZ017-027-036-066-071-202000
...SOUTHWEST VIRGINIA/EAST TENNESSEE...

CITY           SKY/WX    TMP DP  RH WIND       PRES   REMARKS
WISE*          CLOUDY    57  54  88 SW13G20   29.82F
JONESVILLE*      N/A     63  55  77 SW5       29.82F
ABINGDON*      PTSUNNY   60  55  85 W10       29.82F
BRISTOL        CLOUDY    62  54  74 NW7G16    29.81F
MORRISTOWN*    PTCLDY    66  52  59 W14       29.79F
SEVIERVILLE*   MOCLDY    70  48  46 SW14      29.79F
KNOXVILLE      PTSUNNY   66  52  60 SW20      29.79F
LAFOLLETTE*    PTCLDY    66  54  63 VRB8G14   29.81F
OAK RIDGE      MOSUNNY   67  53  61 SW8       29.79F
CROSSVILLE     MOSUNNY   60  48  64 VRB5      29.80F
NASHVILLE      PTSUNNY   66  53  63 S10       29.74F
$$

...KEY TO REMARKS...
VSB - VISIBILITY IN MILES
WCI - WIND CHILL INDEX
HX  - HEAT INDEX

$$




USA.gov is the U.S. government's official web portal to all federal, state and local government web resources and services.